Regional Weather Roundup
Issued by NWS Bismarck, ND

Home | Current Version | Previous Version | Text Only | Print | Product List | Glossary On
Versions: 1 2 3 4 5 6 7 8 9 10 11 12 13 14 15 16 17 18 19 20 21 22 23 24 25 26 27 28 29 30 31 32 33 34 35 36 37 38 39 40 41 42 43 44 45 46 47 48 49 50
000
ASUS43 KBIS 020810
RWRBIS

NWR BROADCAST TEXT
NATIONAL WEATHER SERVICE BISMARCK ND
300 AM CDT THU JUL 02 2015

NOTE: "FAIR" INDICATES FEW OR NO CLOUDS BELOW 12,000 FEET WITH NO
SIGNIFICANT WEATHER AND/OR OBSTRUCTIONS TO VISIBILITY.


CITY           SKY/WX    TMP DP  RH WIND       PRES   REMARKS
WILLISTON      MOCLDY    62  56  80 SW7       30.00S
MINOT          MOCLDY    63  61  93 CALM      29.94F FOG
MINOT AFB      MOCLDY    61  61 100 W5        29.93F FOG
BISMARCK       CLOUDY    67  64  90 S5        29.94F
DICKINSON      CLOUDY    63  60  90 NW7       29.99S FOG
GARRISON         N/A     63  61  93 NW3       29.95F
HETTINGER ARPT CLEAR     58  56  93 CALM      30.02R FOG
JAMESTOWN      PTCLDY    64  61  90 S3        29.95S
BEACH          CLOUDY    55  55 100 NW3       30.05S
CROSBY         FAIR      59  59 100 SW5       29.98S FOG
HARVEY         FAIR      64  64 100 CALM      29.94S FOG
HAZEN          CLOUDY    63  63 100 W5        29.96S FOG
LINTON         FAIR      64  64 100 S8        29.95S FOG
MANDAN         PTSUNNY   66  64  94 SE6       29.96S
OAKES            N/A     59  59 100 S5        29.96R
STANLEY        FAIR      59  59 100 CALM      29.99S FOG
$$

CITY           SKY/WX    TMP DP  RH WIND       PRES   REMARKS
GRAND FORKS    CLEAR     60  57  89 S5        29.94F
GRAND FORKS AF CLEAR     60  57  87 S6        29.94F
DEVILS LAKE    MOCLDY    66  61  82 S6        29.92F
FARGO          CLEAR     60  55  83 SE6       29.97F
CANDO          FAIR      64  63  94 CALM      29.94S
CAVALIER       FAIR      63  59  88 S5        29.93S
GRAFTON        FAIR      61  61 100 S6        29.94S FOG
GWINNER          N/A     61  59  94 SE5       29.97S
LANGDON        FAIR      59  59 100 S8        29.95F FOG
ROLLA          CLOUDY    63  63 100 CALM      29.96S
$$

CITY           SKY/WX    TMP DP  RH WIND       PRES   REMARKS
ABERDEEN       CLOUDY    63  58  83 S6        29.96R
MOBRIDGE       MOCLDY    68  68 100 SE5       29.92S
BUFFALO          N/A     59  58  96 W10       29.98R
RAPID CITY     CLOUDY    63  61  93 SW6       30.03F
GLASGOW        PTCLDY    60  51  72 W6        30.04F
SIDNEY         PTCLDY    59  55  88 CALM      30.02S
WOLF POINT     CLEAR     57  55  93 W5        30.03F
GLENDIVE       PTCLDY    57  54  88 NW7       30.04F
MILES CITY     CLEAR     62  56  80 W9        30.06R
BAKER          CLEAR     59  56  89 CALM      30.05S
$$

CITY           SKY/WX    TMP DP  RH WIND       PRES   REMARKS
BILLINGS       PTCLDY    65  54  67 NW8       30.15S
GREAT FALLS    MOCLDY    66  51  58 NE7       30.18F
REGINA         PTCLDY    59  59 100 NW3       29.99R
ESTEVAN        CLOUDY    59  59 100 NE5       29.97S SMOKE
$$



USA.gov is the U.S. government's official web portal to all federal, state and local government web resources and services.